This is the latest recevied weather packets stored in our database for station/object ZS2JO. If no packets are shown the sender has not sent any weather packets the latest 1 day(s).
| Time | Temp. | Humidity | Pressure | Rain* | Wind** | Luminosity | Snow |
|---|---|---|---|---|---|---|---|
| 1778063602 | 15.56° C | 88% | 1007.9 hPa | 0 mm | - | 231 W/m² | - |
| 1778062997 | 15.56° C | 89% | 1008.1 hPa | 0 mm | - | 242 W/m² | - |
| 1778062390 | 15.56° C | 91% | 1008.3 hPa | 0 mm | - | 475 W/m² | - |
| 1778061181 | 13.89° C | 99% | 1008.4 hPa | 0 mm | - | 252 W/m² | - |
| 1778060576 | 12.78° C | 99% | 1008.5 hPa | 0 mm | - | 215 W/m² | - |
| 1778060274 | 12.78° C | 99% | 1008.5 hPa | 0 mm | - | 265 W/m² | - |
| 1778059971 | 12.78° C | 99% | 1008.6 hPa | 0 mm | - | 138 W/m² | - |
| 1778059669 | 12.78° C | 99% | 1008.3 hPa | 0 mm | - | 106 W/m² | - |
| 1778058761 | 12.78° C | 99% | 1008.3 hPa | 0 mm | - | 535 W/m² | - |
| 1778058459 | 13.33° C | 99% | 1008.3 hPa | 0 mm | - | 328 W/m² | - |
| 1778058156 | 12.78° C | 99% | 1008.1 hPa | 0 mm | - | 208 W/m² | - |
| 1778057549 | 12.78° C | 99% | 1008.4 hPa | 0 mm | - | 162 W/m² | - |
| 1778056639 | 12.22° C | 99% | 1008 hPa | 0 mm | - | 144 W/m² | - |
| 1778056034 | 12.78° C | 99% | 1008.1 hPa | 0 mm | - | 110 W/m² | - |
| 1778055729 | 12.78° C | 99% | 1008.1 hPa | 0.51 mm | - | 102 W/m² | - |
| 1778055427 | 12.78° C | 99% | 1007.6 hPa | 2.29 mm | - | 92 W/m² | - |
| 1778053912 | 13.33° C | 99% | 1007.5 hPa | 10.67 mm | - | 22 W/m² | - |
| 1778053611 | 13.33° C | 99% | 1008.1 hPa | 13.21 mm | - | 19 W/m² | - |
| 1778052399 | 13.33° C | 99% | 1009.2 hPa | 8.89 mm | - | 8 W/m² | - |
| 1778052097 | 13.33° C | 99% | 1009.1 hPa | 7.11 mm | - | 8 W/m² | - |
| 1778051794 | 13.33° C | 99% | 1009.6 hPa | 4.32 mm | - | 7 W/m² | - |
| 1778051492 | 13.33° C | 99% | 1009.4 hPa | 3.56 mm | - | 6 W/m² | - |
| 1778050584 | 13.89° C | 99% | 1008.2 hPa | 4.32 mm | - | 6 W/m² | - |
| 1778049977 | 14.44° C | 99% | 1008.2 hPa | 1.78 mm | - | 4 W/m² | - |
| 1778049371 | 14.44° C | 99% | 1008 hPa | 2.29 mm | - | 4 W/m² | - |
* Rain latest hour (hover to see other rain measurements)
** Current wind speed in m/s (hover to see current wind gust speed)